User: anonymous   Login
Location: Caltech
(34.1382°N, 118.1253°W)
Time: 03:24:13
(UTC-07:00)
Language:

CZ-4B DEB - Orbit

View from above orbital plane
View from above orbital plane
View from above satellite
View from above satellite

Ground track
Ground track

The orbit data is extracted from the following two-line orbital elements,

1 27433U 02024D   17080.90697165 +.00000094 +00000-0 +75477-4 0  9993
2 27433 098.9590 054.0401 0013788 300.5439 059.4371 14.12155427764868
Epoch (UTC): 21 March 2017 21:46:02
Eccentricity: 0.0013788
inclination: 98.9590°
perigee height: 842 km
apogee height: 862 km
right ascension of ascending node: 54.0401°
argument of perigee: 300.5439°
revolutions per day: 14.12155427
mean anomaly at epoch: 59.4371°
orbit number at epoch: 76486

The dashed part of the orbit path shows where the satellite is in the earth's shadow,  

DLR